Location: ????
(33.1659°N, 35.6604°E)
Time: 06:41:50
(UTC+00:00)

Lacrosse 5 rocket - Pass Details

Date: 20 September 2019
Orbit: 459 x 639 km, 57.0° (Epoch: 15 October)

Event Time Altitude Azimuth Distance (km) Brightness Sun altitude
Rises 17:01:49 0° 230° (SW) 2,464 5.2 -18.3°
Reaches altitude 10° 17:03:58 10° 236° (SW) 1,599 4.2 -18.7°
Maximum altitude 17:07:26 48° 312° (NW) 617 1.9 -19.4°
Enters shadow 17:10:18 15° 24° (NNE) 1,379 3.2 -20.0°
